Regional Weather Roundup
Issued by NWS

Home | Current Version | Previous Version | Text Only | Print | Product List | Glossary Off
Versions: 1 2 3 4 5 6 7 8 9 10 11 12 13 14 15 16 17 18 19 20 21 22 23 24 25 26 27 28 29 30 31 32 33 34 35 36 37 38 39 40 41 42 43 44 45 46 47 48 49 50

000
ASUS45 KBOI 291510
RWRID
WEATHER ROUNDUP FOR IDAHO
NATIONAL WEATHER SERVICE BOISE ID
900 AM MDT FRI AUG 29 2014

NOTE: "FAIR" INDICATES FEW OR NO CLOUDS BELOW 12000 FEET
WITH NO SIGNIFICANT WEATHER AND/OR OBSTRUCTIONS TO VISIBILITY

IDZ012-014-291600-
SOUTHWEST IDAHO


CITY           SKY/WX    TMP DP  RH WIND       PRES   REMARKS
BOISE          SUNNY     66  40  38 SE3       29.99S
CALDWELL       SUNNY     64  45  48 NE3       30.00S
MOUNTAIN HOME  SUNNY     64  42  45 NW5       30.01R
$$

IDZ016-017-291600-
SOUTHCENTRAL IDAHO


CITY           SKY/WX    TMP DP  RH WIND       PRES   REMARKS
BURLEY         MOSUNNY   61  49  64 CALM      30.07R
JEROME         MOSUNNY   64  48  56 S3        30.07R
TWIN FALLS     SUNNY     69  47  45 SW8       30.07R
$$

IDZ019>023-291600-
SOUTHEAST IDAHO


CITY           SKY/WX    TMP DP  RH WIND       PRES   REMARKS
IDAHO FALLS    SUNNY     59  49  69 NE3       30.13R
POCATELLO      SUNNY     63  49  60 CALM      30.10S
REXBURG        SUNNY     57  48  72 NE5       30.13S
$$

IDZ006-010-011-018-031-032-291600-
CENTRAL IDAHO MOUNTAINS


CITY           SKY/WX    TMP DP  RH WIND       PRES   REMARKS
MCCALL         SUNNY     55  42  61 CALM      30.10R
HAILEY         MOSUNNY   57  41  54 NW9       30.16R
STANLEY          N/A     45  35  68 E6        30.23F
SALMON         SUNNY     55  46  71 CALM      30.09F
CHALLIS        SUNNY     58  41  53 CALM      30.14S
$$

IDZ002-004-006-007-026-291600-
NORTHERN IDAHO


CITY           SKY/WX    TMP DP  RH WIND       PRES   REMARKS
LEWISTON       MOSUNNY   63  47  55 E5        29.96S
LOWELL           N/A     54  50  86 CALM      30.04S
COEUR D`ALENE  MOSUNNY   63  48  59 S7        29.97S
MULLAN PASS    SUNNY     55  39  54 VRB6      30.11S
$$



USA.gov is the U.S. government's official web portal to all federal, state and local government web resources and services.